Location: Camp Crooked Creek
(37.9149°N, 85.6607°W)
Time: 03:29:04
(UTC-04:00)

Lacrosse 4 - Visible Passes

Search period start: 01 September 2014 00:00
Search period end: 11 September 2014 00:00
Orbit: 673 x 680 km, 68.0° (Epoch: 25 February)

Date Brightness Start Highest point End Pass type
(mag) Time Alt. Az. Time Alt. Az. Time Alt. Az.
07 Sep 4.6 23:48:04 12° N 23:48:04 12° N 23:48:36 10° N visible
08 Sep 4.7 06:37:13 10° NNE 06:40:10 16° NE 06:43:06 10° E visible
08 Sep 3.9 22:42:59 18° NNE 22:42:59 18° NNE 22:44:15 10° NNE visible
09 Sep 2.0 21:30:01 10° S 21:34:28 41° ESE 21:38:57 10° NE visible
09 Sep 4.0 23:11:43 10° WSW 23:15:23 22° NW 23:19:05 10° N visible
10 Sep 4.7 06:07:43 10° NNE 06:10:37 16° NE 06:13:30 10° E visible
10 Sep 3.4 20:27:45 10° SE 20:29:47 13° ESE 20:31:48 10° ENE visible
10 Sep 2.1 22:05:15 10° SW 22:09:57 62° WNW 22:14:43 10° NNE visible
